Regional Weather Roundup
Issued by NWS

Home | Current Version | Previous Version | Text Only | Print | Product List | Glossary Off
Versions: 1 2 3 4 5 6 7 8 9 10 11 12 13 14 15 16 17 18 19 20 21 22 23 24 25 26 27 28 29 30 31 32 33 34 35 36 37 38 39 40 41 42 43 44 45 46 47 48 49 50

000
ASUS44 KMEG 200110
RWRTN
TENNESSEE HOURLY STATE WEATHER ROUNDUP
NATIONAL WEATHER SERVICE MEMPHIS TN
700 PM CST FRI DEC 19 2014

TNZ002-004-019-021-049-052-054-088>092-200200-
WEST TENNESSEE

CITY           SKY/WX    TMP DP  RH WIND       PRES   REMARKS
MEMPHIS INTL   CLOUDY    43  34  70 E6        30.22S
NWS MEMPHIS      N/A     42 N/A N/A MISG        N/A
JACKSON        CLOUDY    40  31  70 NE7       30.22R
DYERSBURG      CLOUDY    39  21  48 E7        30.23F WCI  34
UNION CITY     PTCLDY    36  30  80 NE5       30.24R WCI  32
PARIS          CLEAR     36  27  69 NE8       30.22F WCI  29
HUNTINGDON     CLOUDY    37  28  70 NE8       30.22F WCI  31
LEXINGTON      PTCLDY    39  28  65 NE8       30.20S WCI  34
SAVANNAH       CLOUDY    39  28  65 NE3       30.20F
$$

TNZ008-025-027-028-033-062-065-066-200200-
NORTH MIDDLE TENNESSEE

CITY           SKY/WX    TMP DP  RH WIND       PRES   REMARKS
NASHVILLE      CLOUDY    38  28  67 N7        30.25S WCI  33
CLARKSVILLE    PTCLDY    36  28  73 NE7       30.25F WCI  30
SMYRNA         CLOUDY    37  29  73 N8        30.26R WCI  31
COOKEVILLE     CLEAR     36  28  75 NE6       30.19F WCI  31
CROSSVILLE     CLOUDY    36  27  69 NE7       30.17F WCI  30
$$

TNZ061-075-076-078-094-096-097-200200-
SOUTH MIDDLE TENNESSEE

CITY           SKY/WX    TMP DP  RH WIND       PRES   REMARKS
FAYETTEVILLE   CLEAR     36  27  69 MISG      30.18S
TULLAHOMA      CLEAR     36  27  69 N6        30.20R WCI  31
WINCHESTER     PTCLDY    37  27  65 N6        30.19R WCI  33
MCMINNVILLE    CLEAR     36  28  75 CALM      30.20S
SHELBYVILLE    CLEAR     37  30  75 N3        30.23R
$$

TNZ017-018-042-046-047-200200-
NORTHEAST TENNESSEE

CITY           SKY/WX    TMP DP  RH WIND       PRES   REMARKS
TRI CITIES     MOCLDY    36  26  67 CALM      30.19R
ELIZABETHTON   CLEAR     30  27  86 CALM      30.18F
$$

TNZ012-013-036-069-073-074-200200-
CENTRAL EAST TENNESSEE

CITY           SKY/WX    TMP DP  RH WIND       PRES   REMARKS
KNOXVILLE      CLOUDY    41  27  57 N5        30.20R
OAK RIDGE      CLOUDY    41  27  57 NE5       30.21S
GATLINBURG     CLEAR     37  30  75 CALM      30.19S
MORRISTOWN     CLEAR     39  27  60 CALM      30.20R
$$

TNZ083-085-099-200200-
SOUTHEAST TENNESSEE

CITY           SKY/WX    TMP DP  RH WIND       PRES   REMARKS
CHATTANOOGA    CLOUDY    44  30  57 N8        30.17F
$$

SKY/WX REPORTED AS FAIR MEANS FEW OR NO CLOUDS BELOW
12 THOUSAND FEET.



USA.gov is the U.S. government's official web portal to all federal, state and local government web resources and services.